Location: Unspecified
(0.0000°N, 0.0000°E)
Time: 17:52:13
(UTC+00:00)

ISS - Pass Details

Date: 20 March 2019
Orbit: 408 x 410 km, 51.6° (Epoch: 24 April)

Event Time Altitude Azimuth Distance (km) Brightness Sun altitude
Rises 18:24:52 0° 249° (WSW) 2,331 1.6 -4.3°
Reaches altitude 10° 18:28:04 10° 283° (WNW) 1,465 0.6 -5.1°
Maximum altitude 18:29:19 12° 306° (NW) 1,364 -0.2 -5.5°
Drops below altitude 10° 18:30:31 10° 328° (NNW) 1,453 -0.5 -5.8°
Sets 18:33:46 0° 3° (N) 2,316 0.0 -6.6°
